Regional Weather Roundup
Issued by NWS Cleveland, OH

Home | Current Version | Previous Version | Graphics & Text | Print | Product List | Glossary On
Versions: 1 2 3 4 5 6 7 8 9 10 11 12 13 14 15 16 17 18 19 20 21 22 23 24 25 26 27 28 29 30 31 32 33 34 35 36 37 38 39 40 41 42 43 44 45 46 47 48 49 50
000
ASUS41 KCLE 011100
RWRCLE
OHIO REGIONAL WEATHER ROUNDUP
NATIONAL WEATHER SERVICE WILMINGTON, OH
700 AM EDT FRI AUG 01 2014

NOTE: "FAIR" INDICATES FEW OR NO CLOUDS BELOW 12,000 FEET WITH NO
SIGNIFICANT WEATHER AND/OR OBSTRUCTIONS TO VISIBILITY.

OHZ001>008-015>018-024>027-034-035-043-044-011200-
   NORTHWEST OHIO

CITY           SKY/WX    TMP DP  RH WIND       PRES   REMARKS
DEFIANCE       CLEAR     61  58  90 MISG      30.11R FOG
FINDLAY        CLEAR     60  57  89 S5        30.10R
TOLEDO EXPRESS MOCLDY    61  59  93 SW3       30.09R
TOLEDO METCALF PTCLDY    62  58  86 CALM      30.10R
LIMA           CLEAR     60  56  86 CALM      30.12R
$$

OHZ009>014-019>023-028>033-038-089-011200-
   NORTHEAST OHIO

CITY           SKY/WX    TMP DP  RH WIND       PRES   REMARKS
CLE-HOPKINS    PTCLDY    62  57  83 S3        30.13R
CLE-LAKEFRONT  MOCLDY    67  58  72 S3        30.10R
CUY CO. ARPT   PTCLDY    61  59  94 S5        30.12
LORAIN-ELYRIA  CLOUDY    63  58  83 S3        30.12R
ASHTABULA      MOCLDY    60  57  89 CALM      30.13R
AKRON-CANTON   PTCLDY    62  57  83 S3        30.14R HAZE
WOOSTER        CLEAR     54  52  94 CALM      30.14R FOG
MANSFIELD      CLEAR     59  57  93 CALM      30.14R
YOUNGSTOWN     PTCLDY    58  56  93 SE3       30.14R FOG
$$

OHZ042-051>053-060>062-070>072-077>081-011200-
  SOUTHWEST OHIO

CITY           SKY/WX    TMP DP  RH WIND       PRES   REMARKS
CINC-COVINGTON PTCLDY    65  62  90 CALM      30.12R FOG
CINC-LUNKEN    PTCLDY    58  57  97 CALM      30.12R FOG
HAMILTON       CLEAR     59  58  96 CALM      30.12R FOG
DAYTON         NOT AVBL
WRIGHT-PAT AFB PTCLDY    60  59  95 N3        30.12R
DAYTON GENERAL MOCLDY    62  60  93 CALM      30.11R
WILMINGTON     FOG       59  58  96 CALM      30.12R VSB 1/2
$$

OHZ036-037-039>041-045>050-054>059-063>069-073>076-082>088-011200-
  CENTRAL AND SOUTHEAST OHIO

CITY           SKY/WX    TMP DP  RH WIND       PRES   REMARKS
COLUMBUS       PTCLDY    65  59  81 CALM      30.12R
OSU AIRPORT    PTCLDY    61  60  97 NW5       30.12R FOG
BOLTON FIELD   NOT AVBL
RICKENBACK AFB NOT AVBL
NEWARK         FOG       57  56  96 CALM      30.13R VSB 3/4
MARION         CLEAR     57  55  93 S5        30.13R FOG
LANCASTER      FOG       57  56  96 CALM      30.13R VSB 1
ZANESVILLE     PTCLDY    59  56  89 CALM      30.13R FOG
NEW PHILLY     FOG       58  57  97 CALM      30.15R VSB 1
$$



USA.gov is the U.S. government's official web portal to all federal, state and local government web resources and services.